Regional Weather Roundup
Issued by NWS Charleston, SC

Current Version | Previous Version | Graphics & Text | Print | Product List | Glossary On
Versions: 1 2 3 4 5 6 7 8 9 10 11 12 13 14 15 16 17 18 19 20 21 22 23 24 25 26 27 28 29 30 31 32 33 34 35 36 37 38 39 40 41 42 43 44 45 46 47 48 49 50
000 ASUS42 KCHS 170212 RWRCHS REGIONAL WEATHER ROUNDUP NATIONAL WEATHER SERVICE CHARLESTON SC 1000 PM EDT WED AUG 16 2017 NOTE: "FAIR" INDICATES FEW OR NO CLOUDS BELOW 12,000 FEET WITH NO SIGNIFICANT WEATHER AND/OR OBSTRUCTIONS TO VISIBILITY. NOT ALL STATIONS ARE QUALITY CONTROLLED. USE DATA WITH CAUTION... ESPECIALLY DEWPOINT OBSERVATIONS. SCZ027-030-031-034>040-042>050-170300- ...SOUTHEAST SOUTH CAROLINA... CITY SKY/WX TMP DP RH WIND PRES REMARKS N CHARLESTON CLOUDY 84 79 85 S9 30.01S HX 96 WATERFRONT PRK N/A N/A N/A N/A S5 29.86R JOHNS ISLAND FAIR 86 81 84 CALM 30.02R HX 102 PINOPOLIS N/A 84 79 84 CALM 29.94R HX 96 MONCKS CORNER FAIR 79 77 94 CALM 30.01R SUMMERVILLE FAIR 82 79 89 CALM 30.02S HX 93 BEAUFORT MCAS CLEAR 85 82 91 S5 30.02R HX 102 BEAUFORT ARPT FAIR 84 79 84 S6 30.02R HX 96 HILTON HEAD IS PTCLDY 86 81 84 S6 30.03S HX 102 WALTERBORO CLEAR 81 77 89 CALM 30.03R ALLENDALE NOT AVBL ...SOUTHERN MIDLANDS AND PEE DEE... CITY SKY/WX TMP DP RH WIND PRES REMARKS GEORGETOWN FAIR 81 81 100 S5 30.02R HX 91 KINGSTREE FAIR 79 77 94 CALM 30.01R ORANGEBURG CLEAR 83 76 79 CALM 30.02R HX 91 BARNWELL FAIR 84 77 79 CALM 30.02R HX 94 AIKEN FAIR 81 73 78 CALM 30.07R MANNING FAIR 79 79 100 CALM 30.01R COLUMBIA CLEAR 87 75 67 S3 30.01R HX 96 SUMTER CLEAR 83 73 71 CALM 29.99R FLORENCE CLEAR 77 75 93 S3 30.03R MYRTLE BEACH PTCLDY 81 77 89 NE6 30.03R N MYRTLE BEACH PTCLDY 78 77 96 E6 30.02R $$ GAZ063-065-086>088-099>101-113>116-118-119-134>141-150-170300- ...SOUTHEAST GEORGIA... CITY SKY/WX TMP DP RH WIND PRES REMARKS SAVANNAH ARPT PTCLDY 86 79 79 S6 30.03R HX 99 HUNTER AAF MOCLDY 86 77 74 S6 30.00R HX 97 FORT STEWART CLEAR 83 77 80 E3 30.00R HX 92 STATESBORO PTCLDY 83 74 76 CALM 30.03R SYLVANIA CLEAR 81 80 98 CALM 30.04R HX 91 CLAXTON FAIR 82 79 92 CALM 30.03R HX 91 ...CSRA...CENTRAL AND FAR SOUTHEAST GEORGIA... CITY SKY/WX TMP DP RH WIND PRES REMARKS THOMSON CLEAR 80 77 90 CALM 30.09R AUGUSTA-BUSH CLEAR 87 76 69 W6 30.02R HX 97 AUGUSTA-DANIEL CLEAR 89 71 55 CALM 30.04R HX 95 SWAINSBORO FAIR 81 77 89 CALM 30.05R VIDALIA CLEAR 82 75 78 CALM 30.04R EASTMAN FAIR 82 79 91 CALM 30.07R HX 91 HAZLEHURST FAIR 83 67 58 CALM 30.03R ALMA CLEAR 81 76 84 CALM 30.04R WAYCROSS CLEAR 82 75 79 CALM 30.04R JESUP NOT AVBL BAXLEY FAIR 79 79 100 CALM 30.04R BRUNSWICK CLEAR 86 73 66 S7 30.04R HX 93 SAINT SIMONS CLEAR 87 78 74 S6 30.03R HX 100 $$ SCZ027-028-034-036>038-045-046-048>050-GAZ119-141-170300- ...LAKE AND SUPPLEMENTAL COASTAL OBSERVATIONS... STATION/POSITION TIME TEMP WIND PRES WAVE SWELL AIR SEA DIR/SP/G HT/PER HT/PER/DIR (UTC) (F) (DEG/KT/KT) (MB) (FT/S) (FT/S/D) WINYAH BAY 0045 84 210/ 5 1015.0 LAKE MURRAY 0120 87 CALM / 1 1015.2 ACE BASIN NERRS 0045 85 CALM 1016.0 FORT PULASKI 0148 85 86 210/ 5/ 8 1017.1R SAPELO ISLAND 0100 86 170/ 5 1016.0 $$ ANZ835-935-AMZ111-154-330-350-352-354-370-450-454-472-170300- ...C-MAN AND BUOY OBSERVATIONS... STATION/POSITION TIME TEMP WIND PRES WAVE SWELL AIR SEA DIR/SP/G HT/PER HT/PER/DIR (UTC) (F) (DEG/KT/KT) (MB) (FT/S) (FT/S/D) BUOY 41004 0130 84 84 230/ 10/ 12 1016.0R BUOY 41008 0050 86 85 170/ 12/ 14 1016.3 1/ 9 2/ 90/ 9 FOLLY BEACH CMAN 0100 86 CALM / 1 1017.1R CAPERS NEARSHORE 0108 81 85 220/ 12/ 17 1015.9R FRIPP NEARSHORE 0108 86 210/ 12/ 16 1016.0R STATION/POSITION TIME TEMP WIND PRES WAVE SWELL AIR SEA DIR/SP/G HT/PER HT/PER/DIR (UTC) (F) (DEG/KT/KT) (MB) (FT/S) (FT/S/D) 5E ST. MARYS GA 0130 85 N/A 3/ 4 FRYING PAN BUOY 0130 84 84 210/ 2/ 4 1016.4R BUOY 41025 0050 80 83 40/ 10/ 12 1015.6 2/ 7 2/120/ 7 CAPE LOOKOUT NC 0100 81 70/ 8/ 9 1016.0R BUOY 41002 0050 84 84 240/ 10/ 12 1016.5 4/ 5 3/240/ 5 BUOY 41010 0130 85 87 170/ 8/ 10 1017.8R ST AUGUSTINE FL 0100 82 84 200/ 7/ 8 1017.6R $$

USA.gov is the U.S. government's official web portal to all federal, state and local government web resources and services.